Regional Weather Roundup
Issued by NWS

Home | Current Version | Previous Version | Graphics & Text | Print | Product List | Glossary On
Versions: 1 2 3 4 5 6 7 8 9 10 11 12 13 14 15 16 17 18 19 20 21 22 23 24 25 26 27 28 29 30 31 32 33 34 35 36 37 38 39 40 41 42 43 44 45 46 47 48 49 50
000
ASUS43 KMPX 272010
RWRMN
WEATHER ROUNDUP FOR MINNESOTA
NATIONAL WEATHER SERVICE TWIN CITIES/CHANHASSEN MN
200 PM CST MON FEB 27 2017


NOTE: "FAIR" INDICATES FEW OR NO CLOUDS BELOW 12,000 FEET WITH NO
SIGNIFICANT WEATHER AND/OR OBSTRUCTIONS TO VISIBILITY. N/A MEANS
CURRENT SKY AND/OR WEATHER CONDITIONS ARE NOT AVAILABLE.

MNZ060>063-068>070-272100-
   Twin Cities Metro

CITY           SKY/WX    TMP DP  RH WIND       PRES   REMARKS
TWIN CITIES    CLOUDY    44  18  35 S10G18    29.93F
ST PAUL        PTSUNNY   42  19  39 S13       29.95F
CRYSTAL        CLOUDY    44  18  35 S14G23    29.91F
BLAINE         PTSUNNY   46  19  34 S20G29    29.91F
LAKEVILLE      CLOUDY    37  25  60 S9        29.93F
EDEN PRAIRIE   CLOUDY    44  21  40 SW13      29.91F
SOUTH ST PAUL  CLOUDY    43  19  37 S10G20    29.94F
LAKE ELMO      FAIR      41  23  48 S14G20    29.95F
$$
MNZ001>005-007-008-013>017-022>024-027-028-272100-
   Northwest Minnesota

CITY           SKY/WX    TMP DP  RH WIND       PRES   REMARKS
BEMIDJI        CLOUDY    30  16  56 E3        29.85F
HALLOCK        LGT SNOW  19  16  86 NW7       29.92S WCI  10
ROSEAU         PTSUNNY   25  16  68 SW9       29.88F WCI  15
WARROAD        CLOUDY    27  16  63 SW9       29.88F WCI  17
THIEF RVR FALL   N/A     24  17  74 W3        29.89
CROOKSTON      SUNNY     27  19  74 CALM      29.90F
FOSSTON        CLOUDY    30  18  59 CALM      29.86F
DETROIT LAKES  CLOUDY    32  23  69 SE8       29.83F WCI  25
MOORHEAD       MOSUNNY   30  19  64 E5        29.84F WCI  25
PARK RAPIDS    CLOUDY    32  17  54 SE7       29.83F WCI  26
MAHNOMEN       FAIR      31  20  65 N3        29.84F
$$
MNZ006-009>011-018-025>026-272100-
   North Central Minnesota

CITY           SKY/WX    TMP DP  RH WIND       PRES   REMARKS
BAUDETTE       CLOUDY    26  10  50 S7        29.87F WCI  18
FLAG ISLAND    MOSUNNY   21  14  73 S14       29.86S WCI   8
INTL FALLS     CLOUDY    26   9  48 VRB3      29.89F
WASKISH        CLOUDY    25  12  58 NW6       29.88F WCI  18
BIG FORK       CLOUDY    30  18  59 SW5       29.88F WCI  25
LONGVILLE      CLOUDY    34  21  60 SE5       29.85F WCI  30
GRAND RAPIDS   CLOUDY    33  19  56 S7        29.89F WCI  27
CRANE LAKE     CLOUDY    27   5  39 S6        29.92F WCI  20
ORR            CLOUDY    27   9  46 CALM      29.87F
COOK           CLOUDY    28  16  59 CALM      29.90F
WALKER         FAIR      30  16  55 E5        29.85F WCI  25
$$
MNZ012-019>021-037-272100-
   Northeast Minnesota

CITY           SKY/WX    TMP DP  RH WIND       PRES   REMARKS
DULUTH         MOSUNNY   30  22  72 S10       29.90F WCI  21
ELY            CLOUDY    28  16  59 SW6       29.90S WCI  22
HIBBING        MOSUNNY   29  18  63 VRB5      29.89F WCI  24
EVELETH        PTSUNNY   32  17  54 CALM      29.90F
DULUTH HARBOR  MOSUNNY   28  25  86 CALM      29.96F
TWO HARBORS    PTSUNNY   34  25  69 SE5       29.91F WCI  30
SILVER BAY     MOSUNNY   30  21  69 CALM      29.92F
GRAND MARAIS     N/A     29  19  66 NE3       29.98F
G MARAIS ARPRT CLOUDY    25  12  58 SE6       29.90F WCI  18
$$
MNZ029>031-032-039>041-046>048-054>057-064-272100-
   West Central Minnesota

CITY           SKY/WX    TMP DP  RH WIND       PRES   REMARKS
FERGUS FALLS   CLOUDY    32  25  74 SE10      29.86F WCI  24
WHEATON        MOSUNNY   36  27  69 E13       29.80F
MORRIS         CLOUDY    37  27  65 SE16      29.80F
ALEXANDRIA     CLOUDY    37  24  59 SE13      29.83F
ELBOW LAKE     PTSUNNY   33  28  83 E10       29.81F WCI  24
WADENA         CLOUDY    32  25  74 SE8       29.84F WCI  25
GLENWOOD       CLOUDY    37  25  60 SE9       29.84F
APPLETON       CLOUDY    41  25  52 S8        29.81F
BENSON         CLOUDY    39  21  48 S10       29.85F
ORTONVILLE     CLOUDY    37  27  65 SE16      29.78F
MADISON        CLOUDY    46  28  49 SE10      29.80F
WILLMAR        FAIR      41  27  56 SE8       29.86F
$$
MNZ033>034-036-042>043-049>051-058-059-272100-
   Central Minnesota

CITY           SKY/WX    TMP DP  RH WIND       PRES   REMARKS
ST CLOUD       CLOUDY    40  26  57 S13       29.88F
SAUK CENTRE    FAIR      37  23  58 SE9       29.85F
PAYNESVILLE    CLOUDY    38  27  63 S9        29.87F
AITKIN         SUNNY     36  23  60 S8        29.87F
PINE RIVER     CLOUDY    34  23  64 E6        29.89F WCI  29
BRAINERD       CLOUDY    33  26  75 SE10      29.87F WCI  25
STAPLES        CLOUDY    34  25  69 S8        29.85F WCI  27
LONG PRAIRIE   CLOUDY    36  25  64 SE8       29.86F
LITTLE FALLS   CLOUDY    37  23  56 S9        29.87F
LITCHFIELD     MOSUNNY   43  25  49 CALM      29.87F
BUFFALO        CLOUDY    42  22  45 S9        29.90F
MAPLE LAKE     CLOUDY    42  28  57 S5        29.90F
HUTCHINSON     CLOUDY    43  29  57 S9        29.89F
$$
MNZ037-044-045-052-053-272100-
   East Central Minnesota

CITY           SKY/WX    TMP DP  RH WIND       PRES   REMARKS
PRINCETON      MOSUNNY   45  23  42 S9        29.90F
MORA           CLOUDY    37  21  52 S7        29.91F
CAMBRIDGE      CLOUDY    45  27  49 S13       29.88F
RUSH CITY      CLOUDY    44  22  40 S10       29.90F
MOOSE LAKE     PTSUNNY   36  25  64 S7        29.88F
HINCKLEY       FAIR      41  23  48 S8        29.91F
CLOQUET        SUNNY     34  21  60 MISG      29.89F
MCGREGOR       MOSUNNY   34  27  75 S7        29.89S WCI  28
$$
MNZ071>073-080-081-089-090-097-098-272100-
   Southwest Minnesota

CITY           SKY/WX    TMP DP  RH WIND       PRES   REMARKS
MONTEVIDEO     CLOUDY    45  27  49 SW9       29.84F
GRANITE FALLS  CLOUDY    47  26  44 SE10      29.84F
CANBY          CLOUDY    47  20  34 SW13G20   29.80F
MARSHALL       PTSUNNY   46  22  38 S16       29.81F
REDWOOD FALLS  CLOUDY    46  20  35 SW13      29.85F
OLIVIA         MOSUNNY   45  25  45 S10       29.84F
PIPESTONE      CLOUDY    43  25  49 S16       29.80F
WINDOM         MOSUNNY   45  23  42 S9        29.86F
WORTHINGTON    CLOUDY    40  26  57 S12       29.85
JACKSON        CLOUDY    41  23  48 S9        29.87F
TRACY          MOSUNNY   46  27  47 S13       29.83F
SLAYTON        SUNNY     41  27  56 S14       29.83F
$$
MNZ065>067-074>077-082>085-091>093-272100-
   South Central Minnesota

CITY           SKY/WX    TMP DP  RH WIND       PRES   REMARKS
MANKATO          N/A     38  25  59 S12       29.92F
NEW ULM        CLOUDY    43  27  52 S12       29.89F
ST JAMES       CLOUDY    39  28  65 CALM      29.90F
FAIRMONT       CLOUDY    36  26  67 S12       29.90F
GLENCOE        CLOUDY    42  29  60 S12       29.90F
FARIBAULT      CLOUDY    37  25  60 S12       29.94F
OWATONNA       MOSUNNY   37  21  52 S12       29.93F
WASECA         MOSUNNY   39  27  60 SE7       29.94F
ALBERT LEA     SUNNY     37  27  65 SE13      29.92F
$$
MNZ078>079-086>088-094>096-272100-
   Southeast Minnesota

CITY           SKY/WX    TMP DP  RH WIND       PRES   REMARKS
ROCHESTER      SUNNY     36  26  67 S10       29.96F
RED WING       MOSUNNY   41  19  42 S8        29.96F
WINONA         MOSUNNY   43  23  45 S5        30.00F
AUSTIN         SUNNY     37  27  65 SE8       29.94F
PRESTON        SUNNY     39  28  64 S10       29.98F
$$
ABBREVIATIONS USED IN REMARKS
   TC - TEMPERATURES IN CELSIUS
  WCI - WIND CHILL INDEX
   HX - HEAT INDEX
  VSB - VISIBILITY
$$




USA.gov is the U.S. government's official web portal to all federal, state and local government web resources and services.